Wind_Speed
11 14 14 13 12 12 15 17 14 13 13 10 5 2 3 3 1 3 6 6 7 20 24 23 22 22 23 20 18 17 15 17 20 21 21 20 18 17 19 17 13 9 8 10 12 10 8 7 7 5 5 5 6 6 8 10 11 14 16 18 19 19 19 17 16 15 16 16 15 14 13 11 10 9 9 8 9 9 9 9 9 10 11 13 13
10 12 11 12 12 11 13 15 14 11 9 9 7 2 2 2 5 9 10 9 10 17 20 21 22 23 24 21 19 19 17 15 18 22 21 20 19 18 19 18 14 10 10 11 13 12 10 8 8 7 6 6 6 7 8 9 10 12 14 17 19 19 20 19 17 16 16 16 15 14 13 12 11 9 9 8 8 9 9 8 8 9 11 12 11
10 11 11 11 12 12 10 12 14 13 9 7 7 7 4 3 7 10 10 10 11 14 15 17 19 20 22 20 19 20 19 16 17 21 23 22 21 19 17 17 14 12 12 13 14 13 12 10 9 8 7 7 7 7 8 9 10 11 13 15 18 19 20 20 19 17 17 17 16 15 13 12 11 11 10 9 9 9 9 8 8 8 9 9 8
14 12 14 13 11 12 11 9 12 13 9 5 5 7 7 6 7 9 8 6 8 9 10 15 17 17 20 21 18 19 19 19 18 19 22 23 22 20 17 16 15 14 14 14 15 15 14 12 11 10 8 7 7 7 8 8 9 10 12 13 16 19 19 20 20 19 18 17 17 16 14 13 12 11 11 10 10 10 10 9 8 8 8 6 5
18 15 15 15 12 12 12 10 9 10 9 4 3 6 5 4 4 6 7 5 7 8 9 15 18 17 20 22 20 19 19 18 18 18 19 22 24 23 18 16 16 17 16 16 15 16 16 14 13 12 10 8 7 7 7 8 9 9 10 12 14 17 19 20 21 20 19 18 18 17 15 14 12 12 12 11 11 11 11 10 9 8 6 4 2
16 16 15 16 14 12 12 11 10 7 8 8 7 7 6 5 6 7 7 5 6 9 10 12 15 16 18 21 19 18 19 17 16 17 18 20 23 24 22 20 20 19 18 17 17 17 17 16 15 14 12 10 7 6 7 8 9 9 9 10 12 15 17 19 20 21 21 20 19 18 16 14 13 12 12 13 13 12 12 11 10 9 6 3 1
17 15 15 15 16 15 12 12 13 9 9 11 11 10 8 6 7 8 8 6 6 7 8 9 12 16 17 17 16 16 17 17 17 16 17 18 21 25 26 25 24 21 19 18 18 19 19 19 18 17 15 13 10 8 7 7 9 9 9 10 11 13 15 17 19 21 21 21 21 20 18 16 14 13 13 13 14 14 14 13 12 10 7 4 2
21 18 17 17 17 17 14 13 14 12 11 13 14 13 12 9 8 9 8 7 7 8 9 10 12 15 15 13 13 14 16 17 18 17 17 19 20 23 26 26 23 21 21 19 18 22 23 22 21 19 18 16 14 11 9 8 8 10 11 11 12 12 14 16 18 20 21 22 22 21 20 18 16 14 14 14 15 15 15 14 13 12 9 6 3
24 23 21 21 20 19 18 16 16 14 13 15 16 17 16 13 12 11 9 8 8 9 11 11 13 15 14 12 12 13 15 16 18 19 19 18 18 20 23 24 22 22 23 19 17 23 26 26 24 22 21 19 17 15 13 10 9 10 12 14 14 13 14 15 17 19 21 22 22 22 22 21 19 18 16 16 16 17 16 16 14 13 11 8 5
23 24 25 26 24 21 20 22 21 19 17 17 19 19 20 20 19 15 11 9 9 11 13 14 15 16 16 15 14 15 15 15 17 20 20 19 19 20 21 22 22 23 23 20 20 25 27 27 27 26 24 22 20 18 16 14 11 11 12 14 16 16 15 15 17 19 21 22 22 22 22 22 21 20 19 18 18 18 18 17 16 14 12 9 6
21 23 24 27 29 27 23 22 24 25 24 23 22 23 23 25 25 21 18 16 14 15 16 18 19 19 18 17 16 16 15 15 17 19 20 20 20 20 21 22 21 22 21 20 22 26 28 29 30 30 27 24 22 20 19 18 15 13 12 13 15 17 17 16 17 18 20 22 23 23 22 22 21 21 21 21 20 19 19 18 17 15 14 11 7
21 21 22 23 27 30 29 26 25 26 27 27 27 27 28 29 29 28 26 24 22 20 20 21 22 21 19 17 16 17 16 16 17 19 21 21 21 21 22 22 22 22 21 19 19 22 26 31 33 33 31 28 25 23 22 21 19 17 14 13 13 16 18 18 18 18 20 22 23 23 23 22 22 22 22 22 22 21 21 19 18 17 15 12 8
22 21 21 22 23 25 28 29 29 29 29 30 29 29 30 31 32 32 31 30 28 25 24 24 26 24 20 19 19 18 18 17 18 20 21 22 23 23 23 23 23 23 22 20 19 19 25 34 37 36 34 31 28 26 25 23 21 19 17 15 13 13 16 18 19 18 19 20 22 24 24 23 23 23 24 23 23 23 22 22 20 18 17 14 10
25 24 23 22 22 23 25 27 29 30 30 31 32 32 32 33 34 35 36 36 35 32 30 29 30 28 25 24 24 22 20 20 22 22 22 22 23 24 24 25 25 24 24 24 23 24 30 37 39 37 36 34 30 29 27 25 23 21 19 17 15 13 13 15 18 20 19 20 21 23 24 24 24 25 25 24 24 24 24 23 22 21 19 15 13
28 27 26 24 23 23 24 25 26 28 29 31 32 33 34 36 37 38 39 40 40 39 39 38 35 32 30 30 30 28 24 24 24 25 24 23 24 26 27 27 27 28 29 29 28 29 33 37 38 38 37 35 32 31 30 29 26 23 21 20 17 15 13 13 15 19 20 21 21 22 24 25 26 26 26 26 25 25 25 25 24 23 21 18 15
32 31 30 29 27 25 25 25 26 26 27 29 31 33 35 37 40 42 44 44 42 41 42 44 43 38 35 34 34 33 31 30 27 26 27 27 28 30 30 30 30 31 32 32 32 33 35 38 39 38 37 34 33 32 32 31 29 27 25 24 21 19 17 15 16 17 20 22 22 23 23 25 27 28 28 27 26 26 26 26 26 25 23 20 18
34 33 33 33 31 30 28 28 27 27 28 28 30 32 33 36 39 43 46 47 47 43 41 44 47 45 42 40 38 37 36 35 32 30 31 31 31 32 32 33 32 32 32 32 33 35 37 38 38 38 36 35 34 33 32 32 32 30 29 28 26 24 20 18 18 19 20 22 23 24 24 26 28 29 30 29 28 28 28 27 27 26 25 22 21
36 36 35 35 34 33 32 31 30 30 29 29 29 30 31 33 36 39 42 45 48 48 44 43 46 49 49 47 44 42 41 40 37 35 35 35 33 32 33 34 33 32 32 32 33 36 37 37 37 37 36 35 35 34 33 34 34 33 31 30 29 28 25 22 20 21 22 23 24 24 25 26 28 30 31 31 30 29 29 29 28 28 26 24 24
39 38 37 37 37 36 35 34 33 33 32 31 30 30 30 31 33 35 38 41 45 48 49 47 48 50 51 52 51 49 47 45 41 39 39 38 37 35 35 35 34 32 33 34 34 34 35 36 37 36 35 35 35 34 33 34 34 34 34 34 32 30 28 26 23 22 23 25 26 26 26 27 29 30 32 33 32 30 30 30 30 29 28 27 26
40 40 39 39 38 38 37 36 36 35 35 34 32 32 31 32 33 33 35 38 40 43 48 50 51 52 52 55 56 55 53 50 46 43 42 42 41 39 38 36 35 35 36 37 35 34 33 35 38 37 36 36 34 33 32 32 32 33 35 35 34 32 31 29 27 25 25 26 28 28 28 28 30 31 32 34 34 32 31 31 31 31 30 29 28
42 42 41 41 41 40 39 39 38 37 37 36 35 35 35 35 35 34 34 36 38 40 44 47 51 53 54 56 58 60 58 54 51 48 46 45 45 43 41 39 38 38 39 39 36 34 34 36 37 37 37 37 35 33 32 31 31 31 33 34 34 33 32 31 29 27 27 28 29 31 31 31 31 32 33 34 35 34 33 33 33 33 32 31 30
43 43 43 43 43 42 41 41 41 40 39 38 38 38 39 39 39 38 37 37 38 39 42 44 47 51 55 57 59 60 61 58 56 53 50 48 49 47 44 42 40 40 40 38 37 35 34 35 37 38 39 39 37 35 32 31 31 31 32 32 32 32 31 31 30 28 29 30 31 32 34 34 33 33 33 34 36 36 35 34 34 34 34 33 32
43 43 43 43 44 43 42 42 42 41 41 40 41 41 41 42 42 42 41 41 41 41 42 43 45 48 54 58 59 60 62 63 61 58 55 53 52 52 49 45 44 43 42 40 39 38 36 36 39 41 42 41 39 36 33 32 32 32 33 32 32 31 30 30 29 29 29 30 32 34 36 36 36 35 35 35 36 37 37 37 36 36 36 35 34
44 44 43 44 44 44 43 42 42 42 42 42 42 42 43 43 44 43 42 43 43 43 44 45 45 46 51 56 59 60 62 65 66 62 59 57 55 54 52 49 48 47 46 43 41 40 39 40 43 44 43 42 40 38 35 33 33 34 34 33 33 32 31 30 30 30 31 31 32 34 36 39 38 37 37 36 36 37 39 39 38 38 38 38 36
45 45 44 44 44 44 43 43 43 43 43 43 43 44 44 44 45 44 43 43 43 44 44 46 47 47 49 53 57 61 63 65 68 67 64 61 59 57 55 53 51 50 49 46 44 41 39 41 45 45 44 42 42 40 37 35 35 35 34 34 33 32 32 32 32 31 31 32 32 33 36 40 41 40 38 38 37 38 39 40 40 39 39 39 39
47 46 45 45 44 44 43 43 44 44 44 45 45 46 46 47 47 46 45 43 43 44 45 46 48 48 50 53 56 61 64 64 68 71 69 66 63 61 59 55 53 53 51 48 45 43 42 43 44 46 46 44 43 42 39 37 36 36 35 34 33 32 33 33 33 33 32 32 32 33 36 40 43 42 40 39 38 38 39 40 41 41 41 41 40
48 47 46 45 45 44 43 43 43 44 45 46 47 48 49 49 49 48 47 46 44 44 45 47 48 49 50 53 56 60 64 66 68 71 72 70 66 64 62 60 56 55 54 50 46 45 47 47 46 46 47 45 45 44 41 38 36 37 36 35 33 32 33 34 34 34 33 32 33 33 36 40 45 45 42 39 39 39 39 40 41 42 42 42 42
48 47 46 46 46 45 44 44 44 45 46 48 49 51 52 52 51 50 49 48 47 46 45 46 48 50 51 53 56 59 63 67 69 71 71 72 70 67 66 64 60 57 56 53 49 49 50 49 47 46 46 46 46 45 43 40 38 39 39 36 34 33 32 33 35 35 34 33 32 33 36 40 45 46 44 41 39 39 39 40 41 42 43 43 43
47 47 46 46 46 45 44 44 45 46 48 50 52 52 53 53 53 52 51 50 49 47 46 46 47 50 52 53 55 59 62 67 70 72 72 75 75 72 70 69 64 60 59 56 52 53 53 50 49 47 46 47 48 47 45 44 41 40 40 38 36 35 34 33 34 35 34 33 32 33 35 39 44 47 46 43 40 39 38 39 40 42 43 44 44
48 47 46 46 46 45 45 44 46 47 50 51 53 55 55 55 54 54 53 52 50 49 47 48 48 49 51 54 56 58 61 65 69 72 74 77 78 76 75 73 68 64 61 58 54 54 55 53 52 49 46 45 47 47 45 44 43 41 40 41 39 38 36 35 34 34 35 35 34 34 35 38 44 48 47 45 41 39 38 39 40 42 43 44 45
48 47 47 47 46 46 46 46 47 49 51 53 55 56 57 57 57 56 55 53 52 50 48 48 49 49 50 53 56 58 60 62 67 72 75 77 79 80 79 76 72 68 65 61 57 56 56 56 55 53 49 45 44 45 44 43 43 40 39 41 42 40 38 36 36 35 35 36 36 35 36 38 43 47 48 45 42 40 39 39 40 42 43 44 45
49 48 48 48 47 48 48 49 50 51 53 55 56 58 60 60 59 58 57 55 53 50 49 48 48 49 50 52 55 57 59 61 65 70 75 77 80 83 82 79 75 73 71 66 61 59 58 56 57 56 54 51 48 46 43 42 42 41 38 41 44 44 41 39 38 37 36 37 37 36 36 37 41 46 47 46 43 41 40 40 40 41 43 44 45
51 50 49 49 49 50 50 52 53 55 56 58 59 61 62 62 61 60 59 57 54 51 49 48 48 48 49 52 54 56 59 61 64 68 73 77 80 83 85 84 80 76 75 70 65 64 62 58 56 55 55 54 52 50 47 44 44 43 40 40 44 46 45 43 41 38 38 38 37 36 35 36 40 44 46 45 44 42 41 40 40 41 43 45 46
52 52 51 51 52 52 53 55 57 59 60 61 63 64 64 63 62 62 61 60 57 53 51 49 48 48 48 50 53 54 57 60 64 66 70 76 79 82 86 88 86 82 79 75 71 69 67 62 57 55 54 52 52 52 51 48 45 44 41 40 42 45 46 45 42 40 39 39 37 36 35 36 39 42 44 44 43 43 41 40 40 41 42 45 47
54 53 53 53 54 55 56 58 60 62 64 65 65 66 65 64 63 62 62 62 60 57 54 50 48 48 48 49 51 53 55 58 63 66 69 73 78 82 84 86 89 88 84 79 75 73 71 67 62 59 56 53 51 51 52 51 47 43 40 40 41 43 45 44 43 42 41 40 38 36 35 36 38 41 43 44 43 42 41 40 39 40 42 45 47
56 56 56 56 56 57 59 61 62 64 67 68 69 68 67 66 65 63 62 62 62 60 57 52 49 49 48 48 49 51 52 55 61 65 68 72 77 81 83 83 87 91 89 83 79 77 75 71 67 64 61 57 53 51 52 52 50 45 40 39 41 45 46 44 43 43 42 41 39 37 35 35 38 40 42 43 42 41 40 39 38 39 41 43 46
57 58 58 58 58 59 60 62 65 66 68 70 71 70 69 68 68 67 64 63 63 61 58 54 51 50 49 48 47 49 51 53 57 63 68 71 75 80 83 83 83 87 89 86 82 81 79 76 71 66 63 61 56 52 52 53 53 50 44 40 41 46 47 46 45 43 42 41 39 37 36 36 38 39 40 41 41 40 39 38 38 39 40 42 45
59 59 60 60 61 61 62 63 66 68 70 73 73 72 71 71 71 68 66 64 64 62 58 55 53 51 48 47 46 47 50 52 55 61 66 70 73 77 81 83 81 82 85 85 83 82 81 79 74 67 63 63 58 54 53 54 54 53 49 44 44 45 47 48 47 43 41 41 39 38 38 37 37 38 39 39 39 39 39 39 39 39 39 41 43
60 60 61 62 63 63 63 64 66 69 71 73 73 73 74 74 72 70 68 66 64 61 57 54 53 51 48 46 46 46 48 51 53 58 64 68 72 75 78 81 81 79 81 80 79 80 82 80 75 68 64 64 60 54 54 55 54 53 50 48 47 47 46 47 46 43 41 41 40 39 39 38 37 38 39 39 39 39 39 39 38 38 38 39 41
61 61 62 63 64 64 65 65 66 68 70 72 74 76 76 76 74 71 68 66 63 60 56 53 52 50 47 45 45 44 46 49 52 56 61 66 70 73 76 79 80 79 79 79 76 78 82 80 74 70 67 64 61 57 54 54 54 53 52 50 49 48 46 45 45 43 42 42 40 39 39 38 37 38 39 40 40 40 39 38 37 37 37 38 39
62 62 62 63 64 65 66 66 67 68 70 73 77 77 76 75 74 71 67 64 61 58 55 52 49 47 45 44 43 43 44 46 50 53 59 63 68 72 74 77 80 80 80 80 77 74 79 80 73 70 69 65 63 61 57 54 54 54 53 51 49 48 46 45 45 44 43 43 41 39 39 39 38 38 39 39 40 40 39 38 38 37 37 37 38
62 62 63 64 65 66 67 68 69 70 73 76 78 78 77 75 72 69 64 60 58 56 53 49 46 44 43 42 41 41 42 44 47 51 56 61 65 70 73 75 79 80 80 81 77 70 74 79 74 71 70 67 65 65 60 56 56 55 53 49 47 48 47 45 45 45 45 44 41 39 40 40 39 39 39 39 40 40 40 39 38 37 36 36 37
62 62 63 64 65 66 68 69 70 73 76 79 80 79 78 75 72 67 61 56 55 53 50 46 44 42 40 40 39 38 40 42 45 49 54 58 62 67 71 74 78 80 79 79 76 69 69 75 75 72 71 69 67 65 61 58 57 56 54 50 48 47 46 46 47 47 46 44 41 41 41 41 40 40 39 39 38 38 39 40 39 37 36 36 37
63 63 64 64 65 66 68 70 73 75 79 82 83 83 81 78 73 67 60 55 52 49 46 44 42 40 37 37 36 36 37 40 42 46 51 55 59 64 69 74 77 80 78 76 76 71 69 72 74 72 71 69 66 63 61 60 59 56 54 51 49 46 45 46 48 48 46 44 42 41 41 41 40 40 39 38 36 36 36 37 37 37 37 37 37
63 64 64 64 65 68 69 72 75 78 81 83 84 85 84 80 74 67 60 55 50 45 42 41 39 37 35 35 34 33 35 37 40 44 48 52 57 61 67 73 77 79 78 76 76 75 71 71 72 71 71 68 64 63 63 63 61 57 53 52 51 47 43 44 47 47 45 44 43 41 40 41 40 40 40 38 36 35 35 35 36 37 38 39 38
64 64 65 66 67 70 72 74 77 79 81 83 84 84 83 78 72 66 59 54 48 42 40 38 36 35 33 32 32 32 32 34 37 41 46 50 54 58 64 70 75 78 78 76 76 76 73 71 71 71 69 66 63 64 65 64 61 58 54 54 53 49 44 42 44 45 45 45 44 43 41 40 41 41 41 39 37 36 37 37 37 38 39 40 39
66 66 66 67 69 72 75 77 79 80 81 82 82 82 80 75 69 63 57 51 45 39 37 35 33 32 31 30 29 30 30 32 35 39 44 48 52 57 61 67 73 77 78 76 75 75 74 72 71 70 68 65 64 65 65 63 61 58 57 56 54 51 46 41 40 43 47 48 48 46 44 43 42 43 41 39 37 38 38 39 40 40 40 41 40
67 68 68 70 73 75 77 79 80 82 82 82 81 80 77 72 66 60 55 48 41 37 35 32 31 30 29 27 27 28 29 30 31 35 41 45 50 54 59 64 71 75 77 76 75 75 74 73 73 71 68 66 66 67 66 63 61 59 59 57 55 52 47 41 41 45 49 51 50 49 47 45 44 43 42 39 39 39 39 41 44 44 44 44 42
69 70 71 73 76 78 80 81 82 83 84 83 81 78 75 70 63 57 51 44 38 35 32 29 28 28 26 25 26 26 27 27 28 31 37 42 46 51 56 62 68 73 76 76 75 74 74 74 74 72 69 68 68 68 67 64 61 61 60 57 56 54 51 47 46 48 50 51 51 50 48 47 45 45 42 40 40 41 42 45 49 49 47 46 44
71 72 74 77 79 81 82 83 84 84 84 83 79 75 71 66 59 53 47 40 36 33 29 27 26 25 25 24 24 23 23 24 25 28 33 39 43 47 53 59 65 71 75 75 75 75 74 74 74 72 69 68 68 68 67 65 63 63 62 59 58 56 56 54 51 49 49 50 51 51 50 49 48 46 43 41 42 44 46 47 50 49 47 46 45
73 75 78 80 81 83 84 85 86 85 83 81 76 71 67 62 55 48 43 37 34 32 28 25 24 24 24 23 22 20 19 20 21 23 29 35 39 43 49 55 62 68 73 75 75 75 75 75 75 73 69 67 68 69 68 67 66 65 65 64 61 58 60 59 53 48 48 51 53 53 52 52 51 47 44 42 41 41 43 45 48 48 47 46 46
Wind_Direction
340 336 340 344 354 15 17 16 19 24 31 37 40 115 127 100 133 204 193 161 217 246 247 245 247 245 240 240 247 252 256 254 241 227 227 231 231 231 232 236 241 242 250 251 246 254 269 282 291 277 250 234 219 205 197 193 187 183 182 184 186 185 185 183 182 182 178 172 169 166 161 158 152 140 131 122 114 112 115 116 109 104 102 102 101
321 319 331 343 347 0 12 9 2 358 6 16 15 25 131 185 219 220 200 175 204 236 247 247 243 241 240 241 247 253 256 254 242 230 227 229 226 228 233 235 239 248 255 255 249 250 260 269 280 280 260 240 227 214 202 196 189 186 184 184 186 187 187 187 187 187 186 182 176 173 170 165 161 156 147 137 128 123 124 124 119 113 108 107 105
294 301 313 333 343 337 349 4 355 345 342 345 346 349 345 273 250 246 222 190 201 222 241 250 245 240 240 242 247 252 256 255 245 235 228 225 224 229 236 235 240 251 254 256 253 249 255 259 266 274 265 249 235 222 210 200 191 188 186 186 188 188 188 189 190 190 191 190 186 182 178 173 167 163 159 152 143 137 135 134 131 124 115 111 105
279 291 301 310 324 322 324 342 345 343 339 339 335 328 313 278 264 272 261 220 217 219 226 243 248 248 244 243 247 251 256 254 248 240 230 223 221 227 239 246 249 251 247 251 253 251 254 254 255 262 264 257 244 231 219 208 198 192 190 190 191 190 190 190 192 193 193 194 192 188 183 179 173 168 165 162 155 150 146 146 146 138 126 117 103
282 290 298 299 303 310 308 303 317 336 336 329 310 308 305 296 296 290 286 274 261 249 232 238 245 247 244 243 246 249 252 249 241 241 234 224 221 224 237 251 250 245 243 244 248 250 253 252 249 251 254 255 249 239 227 218 209 202 198 197 195 195 193 192 193 195 195 196 195 192 188 185 180 174 171 169 164 160 157 157 159 157 147 137 111
282 286 290 293 295 302 303 290 284 299 312 307 291 291 303 326 335 316 296 293 288 268 245 242 247 245 243 245 247 247 244 235 229 236 237 227 222 221 224 232 234 235 240 244 245 247 250 250 246 244 245 244 244 241 232 224 217 212 209 206 203 201 199 196 196 197 197 197 198 197 193 192 189 184 179 175 172 168 166 167 171 173 172 171 170
281 277 274 282 288 291 295 289 281 276 283 295 293 286 280 291 318 316 301 287 287 273 246 242 250 248 244 246 252 251 239 226 220 229 237 231 222 218 216 222 226 226 231 241 247 246 246 248 243 239 239 238 237 236 231 224 218 216 214 213 211 208 204 202 200 200 201 201 201 202 201 201 201 197 190 184 180 176 174 175 179 185 189 195 222
281 277 268 270 277 280 283 280 278 274 268 278 287 280 266 264 289 297 291 270 259 251 237 242 257 257 250 246 249 253 242 227 221 225 235 233 227 220 217 222 227 224 224 229 244 249 243 242 242 236 233 234 233 232 229 222 214 214 214 214 216 213 210 207 205 204 204 205 206 208 210 211 212 212 205 195 187 183 180 180 184 190 196 204 227
281 278 271 271 275 274 273 271 270 270 264 265 271 271 264 263 275 277 270 261 256 249 239 241 255 260 258 250 244 249 245 233 225 224 230 231 231 229 226 227 226 220 217 212 229 249 244 238 238 235 230 229 229 228 227 224 215 211 211 213 215 216 214 211 209 207 207 208 209 211 214 216 217 218 216 208 196 189 186 184 187 190 196 204 223
287 280 275 274 278 277 270 267 265 265 264 261 261 263 262 263 266 266 260 257 259 259 253 250 252 254 254 250 246 247 247 241 233 229 229 229 229 231 231 232 227 218 214 207 218 241 244 237 235 234 230 226 226 225 223 222 217 212 211 212 214 216 216 214 212 210 209 209 211 212 214 217 218 218 218 216 206 195 191 189 190 191 194 201 220
299 290 282 275 275 277 274 267 262 261 261 260 260 260 260 259 261 261 260 261 262 260 256 254 252 251 248 245 247 248 248 247 240 235 234 231 230 231 231 232 229 222 219 215 219 232 239 239 235 233 230 226 225 225 223 221 218 215 212 213 216 216 217 217 215 213 212 211 211 213 214 215 217 216 215 216 213 203 196 193 192 193 194 198 216
306 299 292 283 276 275 277 274 266 260 258 258 260 262 260 258 258 259 258 259 260 257 256 253 249 247 241 236 239 243 247 250 246 241 238 235 232 230 230 231 230 226 221 220 221 225 234 240 237 234 231 227 225 224 223 222 219 217 215 214 216 219 220 220 220 217 215 213 212 213 214 215 216 215 213 214 215 209 201 197 195 196 195 198 209
307 303 298 293 285 279 279 278 274 267 260 257 257 259 259 257 256 257 257 258 257 252 251 253 252 248 238 231 235 239 243 249 251 249 242 239 237 231 230 231 233 230 222 220 219 216 228 237 235 233 232 230 226 224 225 223 221 219 216 214 213 219 222 223 223 222 220 218 216 214 215 216 216 214 213 214 216 212 206 202 198 198 198 199 204
306 305 302 298 294 288 284 281 279 276 271 264 258 256 255 254 253 255 257 259 259 254 249 249 252 250 243 239 241 242 242 244 246 247 245 244 242 237 233 232 232 229 223 224 222 216 222 230 230 231 232 232 230 227 226 226 224 221 217 214 211 215 221 226 227 227 225 223 220 219 217 216 216 214 214 215 217 215 210 205 202 201 200 199 200
306 305 303 300 297 294 291 287 284 282 280 276 270 264 259 255 253 253 255 257 257 254 250 248 248 248 245 244 246 245 241 240 240 242 245 246 245 242 238 234 231 229 228 229 226 222 221 223 226 229 231 233 234 231 230 229 227 225 220 215 213 215 220 227 231 231 230 228 225 222 220 219 217 216 216 217 219 217 213 208 205 204 202 200 199
306 305 304 302 300 298 296 294 290 286 282 280 278 274 269 263 259 256 258 259 257 253 250 248 247 246 244 243 246 246 241 240 239 238 240 241 243 243 241 238 233 230 232 230 225 223 221 220 223 227 231 234 235 236 237 235 232 230 225 221 219 220 224 231 236 237 235 233 229 226 222 221 219 218 218 220 221 219 216 211 207 206 204 201 200
305 304 304 303 302 301 300 298 296 292 287 283 280 276 273 269 265 262 261 262 261 257 251 248 248 246 244 242 243 243 241 241 239 236 237 238 242 245 243 242 238 232 231 229 225 222 221 221 224 226 230 234 237 239 240 238 237 235 230 227 226 225 229 234 238 241 241 238 234 231 226 223 221 220 219 221 222 221 218 214 210 208 205 202 202
306 304 303 302 301 300 299 298 296 294 292 289 285 281 276 271 268 265 264 263 263 260 253 247 246 247 245 243 240 239 240 241 238 235 237 238 241 244 242 242 241 237 233 230 226 224 223 224 226 227 231 235 237 239 239 239 239 237 233 232 231 231 232 235 236 238 242 243 239 236 232 227 224 222 221 221 223 223 220 217 213 210 208 205 203
307 305 304 302 301 299 298 297 296 295 294 293 290 287 283 278 272 268 265 263 263 262 258 250 245 245 245 243 240 239 239 239 238 235 236 238 239 240 239 238 237 235 234 233 228 225 226 228 227 228 232 235 236 237 238 238 238 238 236 235 234 234 235 235 234 235 240 243 242 239 236 232 228 225 223 222 223 224 222 220 215 212 210 207 205
305 304 303 301 300 299 298 297 296 296 296 295 294 292 289 285 280 275 270 266 263 262 261 257 250 246 243 241 240 239 239 239 238 235 234 235 237 237 238 237 233 230 229 231 229 227 229 231 230 229 231 234 235 235 235 236 236 236 236 236 236 235 235 235 234 236 241 242 242 241 238 235 232 228 225 224 223 223 223 222 219 215 212 210 208
304 303 301 300 299 298 298 297 296 296 295 296 297 297 296 293 290 284 278 273 268 262 259 258 255 250 245 241 239 239 239 238 237 236 233 232 235 236 236 236 233 229 228 228 226 228 232 234 233 232 234 234 233 234 235 236 235 234 234 234 234 234 235 235 235 238 243 244 243 241 239 237 234 231 228 225 224 224 224 223 221 218 215 213 211
303 302 301 300 299 299 298 298 297 297 298 298 299 300 300 298 296 292 287 281 275 268 261 256 254 252 248 243 239 238 238 236 235 235 234 231 232 233 234 234 232 228 227 227 224 224 232 238 236 235 235 234 233 233 235 237 237 236 234 233 233 233 234 235 237 240 244 246 245 242 239 238 236 233 230 227 225 224 224 224 222 220 218 216 214
301 300 299 298 298 297 297 297 297 298 298 298 299 299 299 298 296 294 291 286 280 275 268 261 254 250 248 246 243 239 237 235 234 234 233 232 231 232 233 232 230 228 226 225 224 223 226 232 233 233 233 232 232 233 235 239 240 239 236 234 233 233 233 235 238 241 243 246 248 244 240 238 237 235 232 229 227 225 225 224 223 222 220 219 217
300 299 298 297 296 296 295 295 295 295 295 295 296 297 297 297 295 293 290 286 281 277 272 267 261 252 247 246 245 242 237 234 234 233 233 232 231 232 232 230 229 229 228 227 227 225 226 231 233 231 232 232 231 234 237 240 241 241 238 235 234 233 233 235 237 240 244 247 249 248 243 238 237 236 234 231 228 226 225 225 224 223 222 221 220
300 299 297 296 295 294 294 294 293 293 293 294 295 296 297 296 295 293 289 285 281 277 273 269 265 258 251 246 244 243 241 236 234 232 231 231 230 230 231 231 230 230 232 232 229 224 223 230 235 234 232 231 231 233 237 239 241 242 241 238 236 235 234 235 237 240 244 247 249 250 246 240 237 236 235 233 231 228 226 225 225 224 223 223 222
299 298 297 296 295 294 293 293 293 293 294 296 298 299 299 298 296 294 291 287 282 278 275 271 266 261 255 248 243 241 241 239 235 232 230 229 229 229 230 231 230 229 231 233 231 225 220 223 231 235 234 233 233 233 234 237 239 241 243 241 240 238 237 237 238 240 243 247 250 250 247 241 237 236 235 234 233 232 229 227 226 226 225 224 224
299 299 298 297 296 295 294 294 294 295 297 299 300 301 301 300 298 296 294 290 285 279 275 272 269 264 258 252 246 241 240 239 237 234 231 229 228 228 229 230 230 229 230 231 231 228 225 225 228 231 233 234 234 233 232 235 237 240 242 242 241 241 240 238 239 240 242 246 250 251 248 242 237 235 236 235 234 234 232 230 228 227 227 226 226
300 300 299 299 298 296 296 295 296 297 300 301 302 302 302 301 299 297 295 292 288 282 277 273 270 266 261 255 250 244 239 238 237 235 232 230 229 228 228 229 229 228 230 232 231 229 229 230 230 229 231 233 233 233 233 235 237 238 239 240 240 240 241 239 239 240 242 247 251 253 250 244 238 235 235 235 235 235 235 233 231 230 229 229 228
301 300 300 299 297 296 296 296 297 300 302 303 304 303 302 301 300 298 296 293 289 285 280 275 270 267 263 258 253 247 241 237 236 235 231 229 229 228 228 228 227 226 228 230 230 230 231 231 231 230 231 233 233 234 234 235 236 236 237 238 238 239 241 241 241 241 244 248 252 256 254 247 239 234 234 235 235 235 236 236 234 232 231 230 230
301 301 300 298 296 295 295 296 299 301 303 304 304 304 303 302 301 299 297 294 291 287 283 278 273 268 263 259 255 250 245 239 236 235 232 229 228 228 228 228 227 224 225 227 228 230 231 232 231 230 229 231 233 233 234 235 235 235 235 237 238 239 243 245 246 245 245 248 251 256 257 250 240 234 233 235 236 235 236 237 237 235 233 232 231
302 301 300 298 296 295 296 298 300 302 304 305 305 305 304 304 303 301 299 296 293 290 285 280 275 270 265 260 256 252 249 243 237 234 233 230 227 227 228 228 226 224 223 225 226 228 230 231 231 229 228 230 232 232 233 234 235 234 235 239 240 241 244 247 248 248 247 248 250 254 256 252 242 235 233 235 236 237 237 238 238 237 235 233 232
304 302 300 299 298 297 298 300 302 303 304 306 306 306 306 305 304 303 301 299 297 293 288 282 277 272 267 262 257 253 251 247 240 234 232 231 228 226 226 226 225 224 224 224 225 227 228 228 230 230 230 231 233 232 232 233 233 231 231 238 243 244 245 248 249 249 248 248 251 253 255 253 244 236 233 235 237 238 239 240 240 239 237 234 233
304 303 301 300 299 299 300 302 304 305 306 307 308 308 307 307 306 305 304 302 300 297 292 286 280 274 269 264 259 254 251 248 244 237 231 229 228 226 225 225 224 224 225 224 223 226 227 226 227 230 231 232 234 233 232 234 232 227 224 231 240 245 246 247 249 250 248 248 250 253 253 251 244 237 234 235 238 240 241 242 242 241 239 237 234
304 303 302 301 301 301 302 304 305 306 307 308 308 308 308 307 307 307 307 305 302 299 294 288 283 277 271 265 260 255 252 249 245 240 233 229 227 226 225 224 223 224 225 225 223 223 225 224 225 228 229 230 233 233 232 233 230 224 221 227 238 245 247 247 248 249 248 246 248 251 250 247 243 236 234 236 238 241 243 244 244 243 241 239 236
304 304 303 302 302 302 303 304 305 306 307 307 307 307 308 308 308 308 308 307 304 301 296 290 285 280 274 267 262 257 252 248 245 241 235 229 226 226 226 224 223 224 226 226 224 223 224 224 224 227 229 229 231 232 231 231 229 224 223 226 234 242 244 244 245 246 247 246 246 248 248 244 240 236 234 236 239 242 244 245 246 244 243 241 238
305 304 303 302 302 302 303 304 305 305 306 307 307 308 308 309 310 309 308 307 304 301 297 293 288 283 276 270 265 259 254 248 244 241 235 229 225 225 226 225 223 224 226 227 226 225 225 225 224 225 227 229 230 231 229 228 228 226 224 225 232 237 239 240 241 243 245 245 244 246 245 241 238 235 233 235 239 241 244 245 246 245 244 243 240
304 303 302 302 302 302 302 304 305 305 306 307 307 308 309 311 311 310 309 308 305 301 297 294 290 284 278 272 266 261 255 248 243 239 235 230 225 223 224 225 224 223 224 225 226 226 226 228 227 224 225 226 228 228 227 226 226 226 224 226 233 236 235 236 238 239 243 244 243 243 242 238 235 234 234 236 238 240 241 243 245 246 246 244 242
303 303 302 301 301 301 302 304 305 306 307 307 307 309 311 312 312 311 311 308 304 300 297 294 290 285 279 274 267 261 256 249 242 238 235 230 225 222 223 225 225 223 222 223 224 225 226 228 228 224 221 223 224 225 224 224 224 224 223 226 233 234 231 234 234 234 238 242 242 241 239 236 234 233 234 236 238 239 240 242 244 246 247 246 244
303 302 302 301 301 302 303 304 305 306 308 308 307 310 312 312 312 312 311 309 304 300 296 293 289 285 280 274 268 261 255 249 242 236 233 230 226 222 221 223 224 223 222 222 223 223 224 227 227 223 219 220 222 222 222 222 223 222 221 225 229 229 229 232 233 231 235 239 239 239 237 235 234 233 234 235 237 239 241 243 245 247 247 247 245
303 302 302 301 302 302 303 304 305 307 309 308 308 310 311 312 313 313 312 309 304 299 296 293 289 284 280 274 268 261 254 248 242 236 232 229 226 223 221 221 222 222 221 220 221 221 222 224 224 222 218 218 219 220 221 222 221 220 221 224 227 227 227 230 232 232 235 237 237 237 237 236 235 234 235 236 238 239 242 245 247 248 248 248 246
303 302 302 302 302 303 303 304 305 308 309 308 308 310 311 313 314 313 312 308 303 300 297 293 288 284 279 273 267 260 253 247 241 236 231 228 225 222 220 219 220 221 221 219 218 219 220 221 221 220 217 215 216 218 219 221 221 220 221 224 227 227 227 228 231 232 233 235 235 235 237 236 235 235 237 238 238 239 242 245 247 248 249 248 247
303 302 303 303 303 303 304 305 307 309 309 309 309 310 312 313 314 314 312 309 304 301 298 294 289 283 278 272 265 258 252 245 240 235 231 227 224 221 219 217 217 220 221 219 218 218 217 217 217 217 215 213 214 216 218 219 220 220 221 224 227 228 226 227 229 231 231 233 233 234 235 234 233 235 238 239 239 240 241 243 246 249 249 249 247
304 304 303 303 303 304 305 307 309 310 311 311 311 312 314 315 316 316 314 310 306 302 299 294 289 283 276 270 264 257 250 243 238 234 231 227 223 221 218 216 216 218 220 219 219 219 216 214 215 215 214 213 212 213 215 218 219 220 220 222 226 228 226 226 228 230 230 230 232 233 234 233 233 235 237 239 242 243 242 243 247 251 251 249 247
304 304 303 303 304 306 308 310 311 312 313 314 314 315 317 317 318 318 316 312 308 304 299 294 288 282 275 268 262 255 247 242 236 233 230 227 223 220 217 216 215 217 220 219 218 219 217 215 214 214 213 212 210 210 213 216 218 218 218 220 224 226 225 225 228 230 230 229 230 233 233 232 232 233 235 240 244 245 244 246 249 252 252 250 247
304 304 304 305 307 308 310 312 313 315 315 316 317 317 318 318 318 318 316 313 310 305 299 293 286 280 273 266 260 252 244 240 236 232 230 227 223 219 216 215 215 216 218 218 217 218 217 216 215 214 213 211 207 207 210 214 217 217 216 219 223 224 225 226 228 230 231 231 231 233 233 230 230 233 234 238 244 247 248 250 252 253 254 252 248
306 306 306 308 309 311 312 313 314 315 316 316 317 317 317 317 317 316 315 313 310 304 297 290 283 276 270 263 257 250 242 239 236 233 230 226 223 220 216 215 214 215 217 217 217 216 217 217 215 215 213 209 205 206 209 212 215 216 217 220 223 224 225 228 230 231 233 234 233 234 234 230 229 233 235 237 242 247 250 255 256 255 254 253 248
308 307 308 310 311 312 312 314 315 315 316 316 317 317 316 317 316 315 315 312 309 303 294 287 279 272 266 261 255 251 245 239 236 234 232 227 223 220 216 214 214 215 215 216 216 216 216 216 216 215 211 207 205 206 208 211 214 217 219 221 223 224 225 228 231 232 232 233 232 232 232 230 228 232 237 240 243 247 252 255 255 253 254 254 251
309 309 310 311 312 312 313 314 315 316 316 317 317 317 316 316 316 315 314 311 305 299 291 282 274 267 263 258 254 252 248 241 236 235 234 229 223 220 216 213 213 214 215 215 215 215 215 215 216 214 210 207 206 208 210 211 214 217 220 222 223 224 224 224 228 231 231 230 231 232 232 230 229 232 237 240 243 246 249 252 253 254 255 255 251
309 310 312 312 313 313 314 315 316 316 317 318 318 317 316 316 317 315 312 308 301 293 285 276 268 263 259 255 253 252 250 245 237 234 234 231 225 220 216 213 212 213 214 214 214 215 214 214 215 214 210 208 208 210 212 213 214 217 219 221 224 225 223 223 225 229 230 229 231 232 232 231 231 233 235 238 241 243 244 249 253 255 254 253 250
310 311 313 313 313 314 315 315 316 317 318 318 318 317 316 316 316 313 309 303 296 287 277 266 260 257 253 250 249 249 250 248 240 234 233 232 227 220 216 213 211 211 212 213 213 214 214 214 215 215 213 210 210 212 214 214 215 216 216 218 222 224 223 225 227 228 229 229 230 231 231 232 232 233 236 239 241 242 243 247 252 252 249 250 250
311 313 313 313 314 314 315 316 316 317 317 317 317 317 316 315 313 310 306 299 291 283 271 258 251 248 244 242 241 240 244 250 245 237 234 232 227 220 216 213 211 210 211 211 212 213 214 214 215 216 215 212 211 212 214 215 217 216 215 216 220 221 222 225 228 229 229 228 229 230 230 231 232 233 236 239 240 243 244 247 250 250 248 249 250
Height
10946 10944 10942 10941 10940 10938 10936 10935 10933 10931 10930 10929 10928 10927 10926 10926 10926 10927 10925 10922 10927 10936 10939 10941 10943 10942 10941 10941 10941 10941 10941 10941 10942 10944 10946 10947 10949 10950 10951 10952 10952 10952 10953 10954 10956 10956 10956 10955 10955 10955 10955 10955 10954 10954 10953 10953 10952 10952 10953 10954 10955 10956 10957 10958 10959 10960 10961 10961 10961 10961 10961 10962 10963 10963 10964 10964 10965 10965 10966 10966 10966 10966 10966 10966 10966
10946 10944 10942 10940 10939 10938 10937 10935 10934 10932 10931 10930 10928 10926 10925 10925 10926 10927 10924 10919 10922 10930 10935 10937 10939 10939 10939 10939 10939 10939 10939 10939 10940 10942 10944 10946 10948 10950 10950 10951 10951 10952 10953 10954 10956 10956 10956 10956 10956 10956 10956 10955 10955 10954 10954 10953 10953 10953 10953 10953 10954 10955 10956 10958 10959 10960 10961 10961 10961 10961 10961 10962 10962 10963 10964 10965 10965 10966 10967 10967 10967 10967 10967 10967 10967
10945 10942 10940 10939 10938 10938 10937 10935 10935 10933 10931 10930 10928 10927 10926 10925 10926 10927 10924 10918 10919 10924 10929 10933 10934 10935 10936 10936 10937 10938 10938 10938 10938 10940 10941 10944 10947 10949 10949 10949 10950 10951 10952 10953 10955 10956 10956 10956 10956 10956 10956 10956 10956 10955 10954 10954 10953 10953 10953 10953 10954 10954 10955 10957 10958 10959 10961 10961 10962 10962 10962 10962 10962 10963 10964 10965 10965 10966 10967 10968 10968 10968 10968 10968 10968
10943 10941 10940 10939 10937 10937 10936 10935 10934 10933 10932 10930 10929 10927 10926 10925 10926 10927 10924 10921 10920 10922 10923 10927 10931 10933 10934 10934 10935 10935 10936 10937 10937 10937 10939 10942 10945 10947 10948 10948 10949 10950 10950 10952 10953 10955 10955 10956 10956 10956 10957 10956 10956 10956 10955 10954 10954 10953 10953 10953 10954 10954 10955 10956 10957 10959 10960 10961 10962 10962 10962 10962 10962 10963 10964 10964 10965 10966 10967 10968 10968 10969 10969 10969 10969
10941 10940 10939 10938 10937 10936 10935 10934 10934 10933 10932 10930 10929 10927 10926 10925 10925 10924 10923 10922 10922 10921 10919 10921 10926 10930 10931 10931 10931 10932 10933 10934 10936 10936 10936 10938 10941 10943 10946 10948 10949 10948 10949 10950 10951 10953 10954 10955 10956 10956 10956 10957 10956 10956 10955 10955 10954 10954 10954 10954 10954 10954 10954 10955 10956 10958 10959 10960 10961 10962 10962 10962 10963 10963 10963 10964 10965 10966 10967 10968 10969 10969 10969 10969 10969
10939 10938 10938 10937 10936 10935 10934 10933 10933 10932 10931 10930 10929 10928 10927 10925 10923 10922 10921 10920 10920 10920 10919 10920 10924 10927 10928 10928 10928 10929 10930 10932 10933 10935 10935 10935 10936 10939 10942 10944 10944 10944 10945 10947 10949 10951 10952 10954 10955 10956 10956 10956 10956 10956 10955 10955 10954 10954 10954 10954 10954 10954 10954 10955 10955 10957 10958 10959 10960 10961 10962 10962 10963 10963 10963 10964 10965 10966 10967 10968 10968 10969 10969 10969 10969
10936 10936 10936 10934 10934 10933 10932 10932 10931 10931 10930 10929 10928 10927 10926 10925 10923 10922 10921 10920 10920 10920 10920 10921 10923 10925 10926 10926 10926 10926 10927 10929 10931 10932 10933 10933 10933 10933 10935 10936 10937 10938 10940 10943 10946 10948 10950 10952 10953 10955 10955 10956 10956 10956 10956 10955 10954 10954 10954 10954 10954 10954 10954 10955 10955 10956 10957 10958 10959 10961 10961 10962 10963 10963 10964 10964 10965 10965 10966 10967 10968 10969 10969 10970 10970
10933 10933 10933 10932 10931 10931 10931 10930 10929 10929 10928 10927 10927 10926 10925 10924 10923 10922 10921 10920 10920 10920 10921 10922 10923 10923 10924 10925 10924 10924 10925 10926 10928 10929 10931 10931 10931 10930 10930 10930 10931 10933 10934 10937 10942 10946 10948 10950 10952 10953 10954 10954 10955 10955 10955 10955 10954 10953 10953 10954 10954 10954 10954 10954 10954 10955 10956 10957 10958 10959 10961 10962 10962 10963 10964 10964 10964 10965 10966 10967 10968 10969 10969 10970 10970
10930 10930 10929 10929 10929 10928 10928 10928 10927 10927 10926 10926 10925 10925 10924 10924 10923 10922 10921 10920 10920 10920 10920 10921 10922 10922 10923 10923 10923 10923 10924 10924 10925 10927 10928 10929 10930 10930 10929 10928 10927 10929 10929 10929 10935 10941 10944 10948 10950 10951 10952 10952 10953 10954 10954 10954 10953 10953 10953 10953 10953 10953 10953 10954 10954 10954 10955 10955 10957 10958 10959 10960 10961 10963 10963 10964 10964 10965 10965 10966 10967 10968 10969 10970 10970
10927 10927 10926 10926 10925 10925 10925 10925 10925 10925 10925 10924 10924 10923 10923 10923 10922 10921 10921 10920 10920 10920 10920 10920 10921 10922 10922 10922 10922 10922 10923 10923 10923 10924 10925 10926 10927 10928 10929 10929 10929 10929 10928 10927 10931 10937 10941 10945 10948 10949 10950 10951 10951 10952 10952 10953 10952 10952 10951 10951 10951 10952 10952 10952 10953 10953 10953 10954 10955 10956 10958 10959 10960 10961 10962 10963 10964 10964 10965 10966 10966 10967 10969 10969 10970
10925 10924 10924 10923 10922 10922 10922 10922 10922 10922 10922 10922 10922 10921 10921 10921 10920 10920 10920 10919 10919 10919 10919 10919 10919 10920 10920 10920 10920 10921 10921 10921 10921 10922 10922 10923 10925 10927 10928 10929 10930 10930 10929 10929 10931 10934 10938 10942 10945 10947 10948 10949 10949 10950 10951 10951 10951 10951 10950 10950 10950 10950 10951 10951 10951 10952 10952 10953 10954 10955 10956 10957 10958 10960 10961 10962 10963 10964 10964 10965 10966 10967 10968 10969 10969
10923 10922 10921 10920 10919 10919 10918 10918 10918 10918 10918 10919 10919 10918 10918 10918 10917 10918 10917 10917 10917 10918 10918 10918 10917 10917 10918 10918 10918 10918 10918 10919 10919 10919 10920 10921 10922 10924 10926 10927 10928 10928 10929 10929 10930 10932 10937 10941 10942 10944 10946 10947 10948 10948 10949 10949 10949 10950 10949 10949 10949 10949 10949 10950 10950 10951 10951 10951 10952 10953 10954 10956 10957 10958 10959 10960 10961 10963 10963 10964 10965 10966 10967 10968 10969
10921 10919 10918 10917 10917 10916 10915 10914 10914 10914 10914 10914 10915 10915 10915 10914 10914 10914 10914 10914 10914 10915 10915 10915 10915 10915 10916 10916 10915 10916 10916 10917 10917 10917 10918 10918 10920 10922 10923 10924 10925 10926 10927 10926 10925 10928 10935 10939 10940 10942 10943 10944 10946 10946 10947 10947 10948 10948 10948 10948 10948 10948 10948 10949 10949 10950 10950 10950 10951 10952 10953 10954 10955 10957 10958 10959 10960 10961 10962 10963 10964 10966 10967 10968 10969
10918 10917 10915 10914 10913 10913 10911 10910 10910 10909 10909 10910 10911 10911 10911 10911 10910 10910 10909 10910 10910 10911 10912 10911 10911 10912 10912 10912 10912 10913 10914 10914 10914 10914 10915 10916 10917 10919 10921 10922 10922 10923 10924 10922 10921 10923 10930 10935 10937 10938 10940 10942 10943 10944 10945 10945 10946 10946 10947 10947 10946 10947 10947 10947 10948 10948 10949 10949 10950 10950 10951 10953 10954 10955 10957 10958 10959 10960 10961 10962 10963 10964 10966 10967 10968
10915 10913 10912 10911 10910 10909 10908 10907 10906 10905 10904 10904 10905 10906 10906 10906 10906 10905 10904 10905 10905 10906 10907 10906 10906 10907 10908 10908 10908 10910 10911 10911 10911 10912 10913 10914 10915 10915 10917 10918 10919 10920 10920 10920 10920 10921 10925 10930 10933 10934 10936 10939 10940 10942 10942 10943 10944 10944 10945 10945 10945 10945 10945 10946 10947 10947 10948 10948 10948 10949 10950 10951 10952 10954 10955 10956 10957 10959 10960 10961 10962 10963 10964 10966 10967
10911 10909 10908 10907 10906 10905 10904 10903 10902 10901 10900 10900 10899 10899 10899 10899 10899 10899 10898 10898 10899 10900 10901 10901 10901 10902 10903 10902 10904 10905 10906 10906 10908 10910 10910 10911 10911 10912 10913 10914 10915 10917 10918 10918 10919 10920 10922 10926 10928 10930 10933 10935 10937 10938 10940 10940 10941 10942 10943 10943 10943 10943 10944 10944 10945 10946 10946 10947 10947 10947 10948 10949 10950 10952 10953 10955 10956 10957 10958 10959 10960 10962 10963 10964 10966
10907 10905 10904 10902 10901 10901 10899 10898 10897 10896 10895 10895 10895 10894 10894 10893 10893 10892 10892 10891 10891 10893 10894 10895 10896 10897 10897 10897 10898 10900 10900 10901 10904 10905 10906 10906 10907 10908 10909 10910 10911 10913 10915 10916 10918 10919 10921 10923 10925 10927 10930 10932 10934 10935 10936 10937 10938 10939 10940 10941 10941 10941 10942 10942 10943 10944 10945 10945 10946 10946 10947 10947 10948 10950 10951 10953 10954 10956 10957 10958 10959 10960 10962 10963 10964
10901 10900 10899 10898 10897 10896 10895 10894 10893 10892 10891 10891 10890 10890 10889 10888 10887 10886 10885 10885 10884 10884 10887 10889 10889 10890 10891 10892 10892 10894 10894 10896 10899 10900 10900 10901 10902 10904 10905 10906 10907 10911 10913 10914 10915 10916 10918 10921 10922 10925 10927 10929 10931 10932 10933 10934 10935 10936 10937 10938 10938 10939 10939 10940 10941 10942 10942 10943 10944 10945 10945 10946 10946 10947 10949 10951 10952 10954 10955 10957 10958 10959 10960 10962 10963
10895 10894 10893 10892 10891 10890 10890 10889 10888 10887 10886 10886 10885 10884 10883 10882 10881 10881 10879 10878 10877 10876 10878 10881 10882 10882 10883 10885 10886 10888 10889 10891 10894 10895 10895 10895 10897 10898 10900 10901 10903 10906 10909 10910 10912 10913 10915 10918 10920 10922 10925 10927 10928 10929 10930 10931 10931 10932 10933 10934 10935 10936 10937 10937 10938 10939 10940 10941 10942 10943 10944 10944 10945 10946 10947 10949 10950 10952 10954 10955 10956 10957 10959 10960 10961
10889 10889 10888 10886 10885 10885 10884 10883 10883 10882 10880 10880 10879 10878 10877 10876 10875 10875 10874 10872 10872 10871 10870 10872 10874 10874 10876 10877 10879 10881 10883 10886 10889 10890 10890 10890 10892 10893 10895 10897 10898 10900 10902 10904 10907 10910 10912 10914 10916 10919 10922 10923 10924 10925 10926 10927 10928 10929 10930 10930 10932 10933 10934 10935 10935 10936 10937 10938 10940 10941 10942 10942 10943 10944 10945 10947 10948 10950 10952 10953 10955 10956 10957 10958 10960
10884 10883 10882 10880 10879 10878 10878 10877 10876 10876 10875 10874 10873 10871 10870 10869 10868 10869 10868 10867 10866 10865 10863 10864 10866 10866 10868 10869 10871 10873 10876 10880 10882 10883 10884 10885 10886 10889 10890 10892 10894 10895 10897 10900 10903 10906 10908 10910 10913 10916 10917 10918 10920 10921 10923 10924 10925 10926 10926 10927 10928 10930 10931 10932 10933 10934 10935 10936 10937 10938 10939 10940 10941 10942 10943 10944 10946 10948 10949 10951 10952 10954 10955 10956 10958
10880 10878 10876 10874 10873 10872 10871 10870 10869 10868 10868 10867 10866 10864 10863 10862 10861 10861 10861 10860 10859 10858 10857 10857 10858 10858 10859 10860 10862 10865 10869 10872 10874 10876 10879 10879 10881 10883 10885 10887 10890 10891 10893 10896 10898 10900 10904 10909 10911 10912 10913 10914 10916 10917 10919 10920 10921 10922 10923 10924 10925 10926 10928 10929 10930 10931 10932 10933 10934 10935 10936 10937 10938 10939 10940 10942 10943 10945 10947 10948 10950 10952 10953 10954 10956
10875 10874 10871 10869 10867 10866 10865 10864 10862 10861 10861 10860 10859 10858 10857 10855 10854 10853 10853 10852 10851 10850 10849 10849 10850 10850 10849 10850 10853 10857 10860 10862 10864 10869 10872 10873 10874 10876 10879 10881 10884 10885 10888 10891 10893 10896 10900 10906 10908 10908 10908 10910 10911 10913 10914 10916 10918 10919 10920 10921 10922 10924 10925 10926 10927 10928 10929 10930 10931 10932 10933 10935 10936 10937 10938 10939 10941 10942 10944 10945 10947 10949 10950 10952 10954
10870 10868 10866 10864 10862 10860 10859 10858 10857 10856 10855 10855 10854 10852 10851 10849 10847 10847 10846 10845 10844 10843 10841 10840 10841 10842 10841 10842 10844 10846 10850 10852 10855 10859 10864 10865 10867 10869 10872 10875 10877 10879 10881 10885 10888 10891 10894 10899 10901 10902 10903 10905 10906 10908 10910 10911 10913 10915 10916 10918 10919 10921 10922 10923 10924 10926 10927 10928 10928 10929 10930 10932 10933 10934 10935 10936 10937 10939 10941 10942 10944 10946 10947 10949 10951
10863 10862 10860 10859 10857 10855 10854 10852 10851 10850 10849 10848 10847 10845 10844 10842 10841 10840 10839 10838 10837 10835 10833 10832 10832 10833 10833 10834 10835 10836 10839 10843 10846 10850 10854 10857 10860 10862 10864 10867 10871 10872 10874 10879 10882 10884 10887 10890 10893 10896 10898 10899 10901 10902 10904 10906 10908 10910 10913 10915 10916 10917 10919 10920 10921 10922 10923 10924 10925 10926 10927 10928 10930 10931 10932 10933 10934 10936 10937 10939 10941 10943 10944 10946 10948
10857 10855 10854 10852 10850 10849 10848 10846 10844 10843 10841 10839 10838 10836 10835 10834 10832 10831 10831 10830 10829 10827 10825 10824 10823 10824 10824 10825 10826 10827 10829 10833 10836 10838 10841 10846 10850 10853 10855 10860 10864 10866 10868 10873 10876 10879 10881 10882 10885 10889 10892 10894 10895 10896 10897 10899 10902 10906 10909 10911 10913 10914 10915 10916 10917 10918 10919 10920 10921 10922 10923 10924 10926 10928 10929 10931 10932 10933 10935 10936 10938 10940 10942 10943 10945
10849 10848 10846 10844 10843 10842 10840 10839 10837 10835 10834 10831 10830 10828 10825 10824 10822 10821 10821 10821 10820 10819 10817 10815 10814 10814 10815 10815 10816 10817 10819 10822 10825 10827 10831 10836 10841 10845 10847 10851 10857 10859 10861 10866 10870 10874 10875 10875 10878 10883 10886 10888 10890 10891 10892 10893 10897 10901 10904 10907 10909 10910 10911 10911 10912 10913 10915 10916 10917 10918 10919 10921 10922 10924 10926 10928 10929 10930 10931 10933 10935 10937 10939 10941 10942
10842 10840 10838 10836 10835 10833 10832 10831 10829 10827 10826 10824 10821 10819 10817 10815 10813 10812 10811 10810 10809 10808 10808 10806 10804 10804 10804 10805 10805 10807 10809 10811 10814 10818 10823 10828 10832 10836 10839 10842 10848 10852 10855 10859 10865 10867 10868 10870 10874 10877 10880 10883 10885 10886 10888 10889 10892 10896 10899 10902 10904 10906 10906 10907 10907 10909 10910 10912 10913 10914 10915 10917 10918 10920 10922 10924 10926 10927 10928 10930 10932 10934 10936 10938 10940
10836 10834 10832 10830 10827 10826 10825 10823 10821 10819 10817 10815 10813 10810 10808 10806 10805 10803 10802 10800 10798 10797 10797 10796 10795 10794 10793 10794 10795 10796 10797 10801 10804 10807 10813 10818 10821 10826 10830 10833 10838 10844 10847 10852 10857 10860 10861 10864 10869 10872 10875 10878 10879 10881 10883 10886 10888 10891 10895 10897 10900 10901 10901 10902 10903 10904 10906 10908 10909 10910 10911 10912 10914 10916 10918 10920 10922 10923 10925 10926 10928 10930 10932 10934 10936
10829 10827 10825 10823 10821 10819 10818 10816 10814 10812 10809 10808 10805 10801 10799 10798 10796 10794 10792 10790 10788 10787 10786 10785 10784 10784 10783 10783 10783 10784 10786 10789 10793 10796 10800 10805 10810 10815 10820 10823 10829 10835 10839 10844 10849 10852 10854 10858 10862 10866 10869 10871 10874 10876 10879 10882 10885 10888 10892 10893 10895 10896 10897 10898 10899 10900 10902 10903 10905 10906 10907 10908 10909 10911 10913 10916 10918 10920 10921 10923 10924 10926 10928 10930 10933
10823 10821 10818 10816 10813 10811 10810 10808 10806 10804 10801 10800 10797 10793 10790 10788 10786 10784 10781 10779 10778 10776 10775 10774 10773 10773 10772 10772 10772 10773 10775 10778 10782 10785 10788 10793 10798 10803 10808 10814 10821 10826 10830 10835 10841 10844 10847 10851 10855 10858 10861 10865 10869 10872 10875 10878 10881 10885 10889 10890 10890 10891 10892 10894 10894 10896 10897 10898 10900 10901 10902 10904 10905 10907 10909 10912 10914 10916 10917 10919 10920 10922 10924 10926 10928
10816 10813 10811 10808 10805 10803 10801 10799 10797 10795 10793 10791 10789 10785 10781 10778 10775 10772 10770 10768 10767 10766 10764 10763 10762 10762 10761 10760 10761 10761 10763 10766 10769 10772 10777 10782 10786 10791 10797 10804 10810 10816 10820 10827 10833 10835 10838 10844 10848 10851 10855 10859 10863 10867 10870 10873 10876 10880 10884 10885 10885 10886 10888 10889 10890 10891 10893 10894 10895 10896 10898 10899 10901 10903 10905 10908 10910 10912 10913 10915 10916 10918 10919 10921 10924
10808 10806 10803 10800 10797 10795 10792 10790 10787 10785 10783 10781 10779 10775 10771 10768 10765 10761 10759 10756 10755 10754 10752 10751 10751 10750 10750 10749 10749 10750 10751 10753 10755 10759 10765 10769 10773 10779 10785 10791 10798 10805 10811 10818 10825 10827 10829 10836 10841 10844 10849 10853 10856 10861 10864 10867 10871 10873 10875 10877 10879 10881 10883 10884 10886 10887 10889 10889 10890 10892 10894 10895 10897 10899 10901 10904 10906 10908 10909 10911 10912 10914 10915 10917 10919
10800 10798 10796 10792 10790 10787 10784 10782 10779 10776 10773 10771 10769 10765 10761 10758 10755 10751 10748 10745 10743 10741 10740 10739 10739 10738 10738 10737 10737 10738 10739 10740 10741 10745 10751 10756 10762 10767 10771 10777 10786 10793 10800 10808 10816 10818 10821 10828 10834 10838 10842 10847 10850 10854 10858 10862 10865 10866 10868 10871 10874 10877 10878 10880 10881 10883 10884 10885 10886 10887 10889 10891 10892 10895 10897 10900 10902 10904 10906 10907 10908 10910 10911 10913 10915
10792 10790 10788 10785 10782 10780 10776 10774 10771 10767 10764 10762 10759 10756 10753 10749 10746 10743 10739 10735 10731 10729 10727 10727 10726 10726 10725 10724 10724 10725 10727 10728 10728 10732 10737 10744 10750 10755 10759 10766 10775 10781 10788 10797 10805 10809 10813 10819 10826 10830 10835 10840 10844 10847 10852 10856 10858 10861 10863 10866 10870 10873 10873 10875 10876 10877 10878 10880 10881 10883 10885 10887 10888 10890 10893 10896 10898 10900 10902 10903 10905 10906 10907 10909 10911
10785 10782 10780 10778 10775 10773 10769 10766 10763 10759 10755 10752 10749 10746 10743 10740 10737 10734 10731 10727 10722 10717 10715 10714 10714 10713 10712 10711 10711 10712 10714 10716 10716 10719 10724 10730 10737 10743 10748 10756 10764 10770 10778 10787 10795 10800 10805 10811 10818 10824 10828 10833 10837 10840 10846 10850 10853 10856 10857 10860 10864 10865 10867 10869 10870 10871 10873 10875 10877 10879 10881 10883 10884 10886 10888 10891 10894 10896 10897 10899 10901 10902 10903 10905 10907
10777 10775 10772 10770 10768 10766 10763 10759 10755 10751 10747 10743 10738 10735 10733 10730 10726 10723 10720 10716 10711 10707 10704 10703 10701 10700 10699 10699 10699 10699 10701 10703 10704 10706 10711 10717 10724 10731 10737 10744 10752 10759 10768 10777 10785 10791 10796 10803 10810 10816 10821 10825 10829 10834 10839 10843 10846 10849 10852 10855 10857 10858 10860 10862 10862 10865 10868 10870 10873 10875 10876 10878 10879 10881 10884 10886 10889 10891 10893 10895 10896 10898 10899 10901 10902
10771 10768 10765 10762 10760 10758 10756 10753 10748 10744 10740 10734 10729 10725 10723 10720 10716 10713 10709 10705 10700 10696 10694 10692 10689 10687 10687 10687 10687 10687 10687 10689 10692 10695 10698 10704 10712 10719 10726 10732 10740 10749 10757 10765 10773 10781 10788 10794 10800 10808 10813 10817 10822 10826 10831 10835 10839 10843 10847 10850 10851 10852 10854 10854 10855 10859 10863 10866 10868 10870 10871 10873 10875 10877 10880 10882 10885 10887 10889 10890 10892 10893 10895 10896 10898
10764 10761 10758 10755 10752 10750 10748 10746 10743 10738 10733 10726 10721 10718 10714 10711 10707 10704 10700 10694 10689 10685 10682 10680 10677 10675 10675 10675 10675 10675 10675 10677 10681 10684 10687 10693 10700 10708 10715 10722 10730 10738 10746 10755 10763 10770 10777 10783 10790 10800 10806 10810 10815 10820 10824 10828 10834 10838 10841 10843 10843 10845 10848 10850 10851 10855 10858 10861 10864 10865 10866 10868 10871 10873 10876 10878 10880 10882 10884 10885 10887 10888 10890 10891 10894
10756 10754 10751 10747 10744 10742 10740 10738 10735 10732 10726 10719 10713 10710 10707 10702 10698 10694 10690 10684 10678 10674 10671 10669 10666 10665 10664 10663 10663 10664 10665 10666 10670 10674 10677 10682 10689 10697 10704 10712 10720 10728 10736 10744 10752 10759 10765 10772 10781 10791 10797 10802 10808 10813 10817 10822 10828 10831 10833 10833 10836 10840 10845 10847 10849 10851 10854 10856 10859 10861 10862 10864 10867 10869 10871 10874 10876 10877 10879 10880 10882 10883 10885 10887 10889
10750 10747 10743 10740 10737 10734 10732 10730 10727 10725 10720 10712 10706 10701 10698 10694 10689 10684 10680 10673 10667 10662 10660 10657 10656 10654 10653 10652 10653 10653 10655 10657 10660 10664 10668 10673 10679 10686 10693 10702 10710 10718 10725 10732 10739 10746 10752 10761 10771 10779 10787 10795 10801 10805 10810 10816 10820 10822 10824 10827 10831 10835 10839 10842 10844 10848 10850 10851 10853 10856 10858 10860 10862 10865 10867 10868 10870 10872 10874 10875 10876 10878 10879 10882 10884
10743 10739 10736 10732 10729 10726 10723 10720 10718 10714 10709 10703 10697 10692 10687 10684 10680 10675 10670 10663 10657 10652 10649 10647 10645 10644 10643 10643 10643 10644 10645 10648 10651 10655 10659 10663 10669 10675 10683 10692 10701 10708 10715 10723 10730 10736 10742 10750 10759 10767 10776 10785 10791 10796 10802 10807 10811 10814 10818 10822 10826 10829 10833 10836 10838 10841 10843 10845 10848 10851 10852 10854 10857 10860 10861 10863 10865 10867 10868 10869 10871 10873 10875 10877 10879
10735 10732 10729 10725 10722 10718 10714 10711 10708 10703 10698 10691 10685 10680 10676 10672 10668 10664 10659 10653 10647 10642 10639 10637 10635 10635 10635 10634 10634 10636 10637 10639 10643 10646 10650 10655 10660 10666 10674 10683 10691 10698 10705 10714 10722 10729 10735 10742 10749 10757 10767 10776 10783 10789 10795 10800 10804 10808 10813 10816 10819 10822 10827 10830 10831 10833 10837 10840 10844 10846 10848 10850 10853 10855 10857 10859 10861 10862 10863 10864 10866 10869 10871 10873 10874
10728 10725 10722 10718 10715 10711 10707 10702 10697 10693 10687 10679 10673 10668 10663 10659 10656 10653 10649 10644 10639 10634 10630 10628 10627 10626 10626 10626 10627 10628 10630 10632 10635 10638 10642 10647 10652 10658 10665 10673 10681 10688 10695 10705 10714 10721 10728 10734 10741 10749 10759 10768 10776 10784 10789 10793 10797 10801 10806 10810 10813 10817 10821 10823 10825 10828 10833 10837 10841 10842 10844 10846 10849 10851 10853 10855 10856 10858 10859 10860 10861 10864 10866 10868 10870
10720 10717 10714 10711 10707 10702 10698 10694 10689 10684 10678 10670 10664 10658 10653 10649 10646 10643 10639 10634 10630 10626 10623 10621 10619 10619 10619 10619 10620 10621 10623 10625 10628 10631 10635 10639 10644 10650 10657 10664 10672 10679 10687 10696 10705 10713 10721 10728 10735 10744 10753 10761 10770 10777 10781 10785 10789 10795 10801 10805 10807 10812 10816 10819 10821 10825 10830 10834 10837 10838 10839 10843 10846 10847 10848 10850 10851 10853 10854 10855 10857 10860 10862 10864 10866
10712 10708 10705 10702 10698 10694 10690 10685 10681 10677 10671 10664 10658 10653 10646 10642 10638 10634 10630 10626 10622 10619 10616 10614 10613 10612 10612 10613 10614 10615 10617 10620 10622 10624 10628 10631 10636 10642 10649 10657 10664 10672 10679 10688 10696 10705 10713 10721 10730 10738 10746 10755 10763 10769 10774 10779 10785 10791 10796 10799 10802 10807 10811 10815 10819 10824 10828 10830 10832 10833 10835 10839 10842 10842 10843 10846 10848 10849 10851 10851 10853 10855 10858 10860 10862
10703 10699 10696 10693 10689 10685 10681 10677 10672 10668 10663 10658 10652 10646 10640 10634 10630 10626 10622 10618 10615 10612 10610 10608 10607 10606 10607 10607 10608 10610 10612 10614 10617 10619 10621 10624 10629 10635 10642 10649 10657 10664 10672 10681 10690 10699 10707 10715 10722 10730 10738 10748 10755 10762 10768 10775 10781 10786 10789 10793 10797 10802 10807 10812 10817 10820 10822 10823 10825 10827 10829 10832 10836 10838 10840 10843 10846 10847 10847 10848 10849 10852 10854 10856 10859
10694 10691 10688 10684 10680 10676 10672 10668 10663 10658 10653 10649 10643 10637 10631 10627 10623 10619 10615 10612 10609 10606 10604 10602 10602 10601 10601 10603 10604 10605 10607 10609 10612 10614 10615 10618 10622 10628 10634 10642 10650 10657 10665 10674 10684 10693 10701 10709 10716 10723 10731 10741 10748 10755 10763 10771 10777 10781 10784 10788 10792 10797 10802 10807 10810 10811 10813 10815 10819 10822 10824 10827 10832 10834 10837 10841 10843 10844 10845 10845 10845 10848 10851 10853 10855
10686 10683 10681 10676 10671 10666 10662 10658 10654 10648 10643 10638 10633 10628 10622 10618 10616 10612 10609 10605 10603 10600 10598 10597 10597 10597 10597 10598 10600 10601 10603 10605 10607 10609 10610 10612 10616 10622 10628 10635 10643 10651 10659 10668 10678 10686 10695 10703 10710 10717 10725 10733 10742 10749 10757 10765 10771 10774 10779 10783 10787 10791 10795 10798 10801 10803 10806 10810 10815 10818 10821 10824 10827 10830 10833 10837 10840 10842 10843 10843 10842 10845 10848 10849 10851
10679 10676 10672 10668 10662 10658 10653 10648 10644 10640 10634 10628 10624 10619 10614 10610 10608 10606 10602 10599 10597 10595 10593 10592 10592 10593 10594 10595 10597 10598 10599 10601 10603 10605 10606 10607 10611 10617 10622 10628 10636 10643 10652 10662 10671 10680 10689 10697 10704 10710 10718 10727 10735 10743 10750 10758 10762 10767 10772 10775 10779 10784 10789 10790 10793 10797 10801 10806 10810 10813 10816 10820 10823 10826 10830 10834 10836 10838 10841 10841 10839 10840 10844 10845 10846
10672 10668 10663 10658 10653 10648 10644 10640 10635 10631 10625 10618 10614 10611 10606 10602 10600 10599 10596 10593 10592 10590 10588 10587 10588 10589 10591 10592 10594 10595 10597 10598 10599 10601 10602 10603 10607 10612 10617 10623 10630 10637 10646 10655 10664 10672 10681 10690 10696 10703 10711 10719 10727 10734 10742 10749 10753 10758 10764 10767 10770 10776 10780 10783 10788 10793 10797 10800 10803 10807 10812 10815 10818 10822 10825 10828 10830 10833 10836 10836 10834 10834 10839 10841 10842